User: anonymous   Login
Location: Fours
(44.3167°N, 6.7000°E)
Time: 10:34:03
(UTC+00:00)
Language:

STARLINK-2232 - Orbit

View from above orbital plane
View from above orbital plane
View from above satellite
View from above satellite

Ground track
Ground track

The orbit data is extracted from the following two-line orbital elements,

1 48578C 21041AB  22228.87062500 -.00018028  00000-0 -12079-2 0  2281
2 48578  53.0536 211.7391 0001677  59.2246 183.0616 15.06414144    15
Epoch (UTC): 16 August 2022 20:53:42
Eccentricity: 0.0001677
inclination: 53.0536°
perigee height: 546 km
apogee height: 548 km
right ascension of ascending node: 211.7391°
argument of perigee: 59.2246°
revolutions per day: 15.06414144
mean anomaly at epoch: 183.0616°
orbit number at epoch: 1

The dashed part of the orbit path shows where the satellite is in the earth's shadow,  

DLR